Cook, MN

9:32 PM CST on February 05, 2016 (GMT -0600)
Cook Municipal

Weather History for KCQM - January, 2013

Change the Weather History Date:

Sunday, January 6, 2013

  Actual Average Record
Temperature  
Mean Temperature 14 °F -  
Max Temperature 17 °F 16 °F 42 °F (2008)
Min Temperature 10 °F 0 °F -36 °F (2005)
Degree Days  
Heating Degree Days 52    
Moisture  
Dew Point 9 °F    
Average Humidity 80    
Maximum Humidity 100    
Minimum Humidity 63    
Precipitation  
Precipitation 0.00 in - - ()
Sea Level Pressure  
Sea Level Pressure 30.03 in    
Wind  
Wind Speed 4 mph (WSW)    
Max Wind Speed 13 mph    
Max Gust Speed 17 mph    
Visibility 10 miles    
Events Snow    
Averages and records for this station are not official NWS values.
T = Trace of Precipitation, MM = Missing Value Source: NWS Daily Summary

Daily Weather History Graph

Daily Weather History Graph

Search for Another Location

Airport or City:

Trip Planner

Search our weather history database for the weather conditions in past years. The results will help you decide how hot, cold, wet, or windy it might be!

Date:

Astronomy

Jan. 06, 2013 Rise Set
Actual Time 7:59 AM CST 4:34 PM CST
Civil Twilight 7:23 AM CST 5:10 PM CST
Nautical Twilight 6:44 AM CST 5:49 PM CST
Astronomical Twilight 6:07 AM CST 6:26 PM CST
Moon 2:04 AM CST 12:10 PM CST
Length of Visible Light 9h 46m
Length of Day
8h 35m
Waning Crescent, 33% of the Moon is Illuminated
Jan 6
Waning Crescent
Jan 11
New
Jan 18
First Quarter
Jan 26
Full
Feb 3
Last Quarter

Hourly Weather History & Observations

Time (CST) Temp. Windchill Dew Point Humidity Pressure Visibility Wind Dir Wind Speed Gust Speed Precip Events Conditions
12:16 AM 17.6 °F 12.3 °F 15.8 °F 93% 29.96 in 10.0 mi West 3.5 mph - N/A   Overcast
12:37 AM 17.6 °F 10.7 °F 15.8 °F 93% 29.96 in 10.0 mi WNW 4.6 mph - N/A   Overcast
12:56 AM 15.8 °F 7.2 °F 14.0 °F 93% 29.97 in 10.0 mi WNW 5.8 mph - N/A   Overcast
1:16 AM 15.8 °F 7.2 °F 14.0 °F 93% 29.97 in 10.0 mi WNW 5.8 mph - N/A   Overcast
1:37 AM 15.8 °F 8.6 °F 14.0 °F 93% 29.98 in 10.0 mi WNW 4.6 mph - N/A   Overcast
2:17 AM 15.8 °F 8.6 °F 14.0 °F 93% 29.99 in 10.0 mi WNW 4.6 mph - N/A   Overcast
2:37 AM 15.8 °F 8.6 °F 12.2 °F 86% 29.99 in 10.0 mi WNW 4.6 mph - N/A   Overcast
2:56 AM 14.0 °F 8.2 °F 12.2 °F 93% 30.00 in 10.0 mi WNW 3.5 mph - N/A   Overcast
3:17 AM 14.0 °F 5.1 °F 12.2 °F 93% 30.01 in 10.0 mi NW 5.8 mph - N/A   Overcast
3:37 AM 14.0 °F 6.5 °F 12.2 °F 93% 30.02 in 10.0 mi NW 4.6 mph - N/A   Overcast
3:56 AM 14.0 °F 5.1 °F 12.2 °F 93% 30.02 in 10.0 mi NNW 5.8 mph - N/A   Overcast
4:17 AM 12.2 °F 2.9 °F 12.2 °F 100% 30.02 in 10.0 mi WNW 5.8 mph - N/A   Overcast
4:37 AM 12.2 °F 2.9 °F 10.4 °F 92% 30.02 in 10.0 mi WNW 5.8 mph - N/A   Overcast
4:56 AM 12.2 °F 6.1 °F 10.4 °F 92% 30.03 in 10.0 mi NNW 3.5 mph - N/A Snow Light Snow
5:37 AM 12.2 °F -0.2 °F 10.4 °F 92% 30.05 in 10.0 mi WNW 9.2 mph - N/A Snow Light Snow
5:56 AM 10.4 °F -0.4 °F 8.6 °F 92% 30.06 in 10.0 mi WNW 6.9 mph - N/A Snow Light Snow
6:17 AM 10.4 °F 0.8 °F 8.6 °F 92% 30.07 in 7.0 mi WNW 5.8 mph - N/A Snow Light Snow
6:37 AM 10.4 °F 2.2 °F 8.6 °F 92% 30.08 in 7.0 mi WNW 4.6 mph - N/A Snow Light Snow
6:56 AM 10.4 °F 2.2 °F 8.6 °F 92% 30.09 in 10.0 mi NW 4.6 mph - N/A Snow Light Snow
7:17 AM 10.4 °F 4.0 °F 6.8 °F 85% 30.09 in 10.0 mi NW 3.5 mph - N/A Snow Light Snow
7:37 AM 10.4 °F 4.0 °F 6.8 °F 85% 30.09 in 7.0 mi NW 3.5 mph - N/A Snow Light Snow
7:56 AM 10.4 °F - 6.8 °F 85% 30.09 in 7.0 mi Calm Calm - N/A Snow Light Snow
8:37 AM 10.4 °F 4.0 °F 6.8 °F 85% 30.11 in 10.0 mi NNW 3.5 mph - N/A Snow Light Snow
8:56 AM 10.4 °F - 6.8 °F 85% 30.10 in 10.0 mi Calm Calm - N/A   Overcast
9:17 AM 10.4 °F 2.2 °F 6.8 °F 85% 30.10 in 4.0 mi WNW 4.6 mph - N/A Snow Light Snow
9:36 AM 10.4 °F 4.0 °F 6.8 °F 85% 30.11 in 10.0 mi West 3.5 mph - N/A   Overcast
9:56 AM 10.4 °F 4.0 °F 6.8 °F 85% 30.12 in 7.0 mi West 3.5 mph - N/A Snow Light Snow
10:17 AM 10.4 °F - 6.8 °F 85% 30.12 in 5.0 mi Calm Calm - N/A Snow Light Snow
10:36 AM 10.4 °F - 6.8 °F 85% 30.12 in 10.0 mi Calm Calm - N/A Snow Light Snow
10:56 AM 12.2 °F - 6.8 °F 79% 30.12 in 5.0 mi Calm Calm - N/A Snow Light Snow
11:17 AM 12.2 °F - 8.6 °F 85% 30.12 in 10.0 mi Calm Calm - N/A   Clear
11:36 AM 12.2 °F - 8.6 °F 85% 30.11 in 10.0 mi Calm Calm - N/A   Clear
11:56 AM 14.0 °F - 6.8 °F 73% 30.11 in 10.0 mi Calm Calm - N/A   Clear
12:17 PM 14.0 °F 8.2 °F 6.8 °F 73% 30.11 in 10.0 mi West 3.5 mph - N/A   Clear
12:36 PM 15.8 °F - 6.8 °F 68% 30.09 in 10.0 mi Calm Calm - N/A   Clear
12:56 PM 15.8 °F - 6.8 °F 68% 30.07 in 10.0 mi Calm Calm - N/A   Clear
1:17 PM 15.8 °F 10.2 °F 6.8 °F 68% 30.08 in 10.0 mi WNW 3.5 mph - N/A   Clear
1:36 PM 15.8 °F - 6.8 °F 68% 30.08 in 10.0 mi Calm Calm - N/A   Clear
1:56 PM 17.6 °F - 6.8 °F 63% 30.08 in 10.0 mi Calm Calm - N/A   Clear
2:17 PM 17.6 °F - 8.6 °F 68% 30.07 in 10.0 mi Calm Calm - N/A   Clear
2:36 PM 17.6 °F 12.3 °F 6.8 °F 63% 30.07 in 10.0 mi SE 3.5 mph - N/A   Clear
2:56 PM 17.6 °F 12.3 °F 8.6 °F 68% 30.08 in 10.0 mi SSE 3.5 mph - N/A   Clear
3:17 PM 17.6 °F - 8.6 °F 68% 30.07 in 10.0 mi Calm Calm - N/A   Clear
3:36 PM 17.6 °F - 8.6 °F 68% 30.07 in 10.0 mi Calm Calm - N/A   Clear
3:56 PM 17.6 °F 10.7 °F 8.6 °F 68% 30.08 in 10.0 mi South 4.6 mph - N/A   Clear
4:17 PM 17.6 °F 12.3 °F 10.4 °F 73% 30.05 in 10.0 mi SE 3.5 mph - N/A   Clear
4:36 PM 17.6 °F 9.3 °F 8.6 °F 68% 30.05 in 10.0 mi SE 5.8 mph - N/A   Clear
4:57 PM 15.8 °F 10.2 °F 8.6 °F 73% 30.05 in 10.0 mi SSE 3.5 mph - N/A   Clear
5:16 PM 15.8 °F 10.2 °F 8.6 °F 73% 30.04 in 10.0 mi SSE 3.5 mph - N/A   Clear
5:36 PM 12.2 °F - 8.6 °F 85% 30.03 in 10.0 mi Calm Calm - N/A   Clear
5:56 PM 10.4 °F - 6.8 °F 85% 30.02 in 10.0 mi Calm Calm - N/A   Clear
6:16 PM 12.2 °F - 6.8 °F 79% 30.01 in 10.0 mi Calm Calm - N/A   Clear
6:37 PM 12.2 °F 6.1 °F 6.8 °F 79% 30.01 in 10.0 mi SSE 3.5 mph - N/A   Clear
6:56 PM 14.0 °F 6.5 °F 6.8 °F 73% 30.00 in 10.0 mi South 4.6 mph - N/A   Clear
7:16 PM 14.0 °F 6.5 °F 6.8 °F 73% 30.00 in 10.0 mi South 4.6 mph - N/A   Clear
7:37 PM 14.0 °F 6.5 °F 6.8 °F 73% 30.00 in 10.0 mi South 4.6 mph - N/A   Clear
7:56 PM 15.8 °F 7.2 °F 6.8 °F 68% 29.99 in 10.0 mi South 5.8 mph - N/A   Clear
8:16 PM 15.8 °F 8.6 °F 6.8 °F 68% 29.98 in 10.0 mi South 4.6 mph - N/A   Clear
8:37 PM 15.8 °F 7.2 °F 6.8 °F 68% 29.97 in 10.0 mi SSE 5.8 mph - N/A   Clear
8:56 PM 15.8 °F 6.1 °F 6.8 °F 68% 29.95 in 10.0 mi South 6.9 mph - N/A   Clear
9:56 PM 15.8 °F 6.1 °F 6.8 °F 68% 29.92 in 10.0 mi South 6.9 mph - N/A   Clear
10:17 PM 15.8 °F 6.1 °F 6.8 °F 68% 29.90 in 10.0 mi South 6.9 mph - N/A   Clear
10:36 PM 15.8 °F 4.2 °F 6.8 °F 68% 29.88 in 10.0 mi SSE 9.2 mph 17.3 mph N/A   Clear
10:56 PM 15.8 °F 5.1 °F 8.6 °F 73% 29.86 in 10.0 mi SSE 8.1 mph - N/A   Clear
11:36 PM 15.8 °F 2.1 °F 8.6 °F 73% 29.84 in 10.0 mi SSE 12.7 mph 16.1 mph N/A   Clear
11:57 PM 15.8 °F 6.1 °F 10.4 °F 79% 29.83 in 10.0 mi South 6.9 mph 16.1 mph N/A   Clear